,,Stat1,,Stat2,,Stat3,,Stat4,,Wind1,,Wind1,
time,status,PR1M_SUM,status,RH1M_AVG,status,SR1M_AVG,status,TA1M_AVG,status,W1dAve1m,status,W1sAve1m,
1999-09-14, 00:01:00,VALID,0,VALID,99.7968,VALID,-0.0169808,VALID,19.1516,VALID,212,VALID,0.768229,
1999-09-14, 00:02:00,VALID,0,VALID,99.7726,VALID,-0.0169808,VALID,19.1488,VALID,211,VALID,0.752262,
1999-09-14, 00:03:00,VALID,0,VALID,99.7981,VALID,-0.0169808,VALID,19.1382,VALID,206,VALID,0.833059,
1999-09-14, 00:04:00,VALID,0,VALID,99.8121,VALID,-0.0509425,VALID,19.1421,VALID,204,VALID,0.918586,
1999-09-14, 00:05:01,VALID,0,VALID,99.8082,VALID,-0.0169808,VALID,19.1521,VALID,190,VALID,1.09023,
1999-09-14, 00:06:00,VALID,0,VALID,99.8375,VALID,0,VALID,19.1451,VALID,184,VALID,1.01923,
1999-09-14, 00:07:00,VALID,0,VALID,99.8159,VALID,-0.0169808,VALID,19.1486,VALID,171,VALID,0.711939,
1999-09-14, 00:08:00,VALID,0,VALID,99.8184,VALID,-0.0169808,VALID,19.1287,VALID,165,VALID,0.689189,
1999-09-14, 00:09:00,VALID,0,VALID,99.8146,VALID,0,VALID,19.119,VALID,171,VALID,0.664696,
1999-09-14, 00:10:00,VALID,0,VALID,99.8235,VALID,-0.0169808,VALID,19.1128,VALID,168,VALID,0.414679,
1999-09-14, 00:11:00,VALID,0,VALID,99.8502,VALID,0,VALID,19.1267,VALID,183,VALID,0.567264,
1999-09-14, 00:12:00,VALID,0,VALID,99.8655,VALID,0,VALID,19.1093,VALID,197,VALID,0.815667,
1999-09-14, 00:13:00,VALID,0,VALID,99.8871,VALID,-0.0169808,VALID,19.1327,VALID,198,VALID,0.623047,
1999-09-14, 00:14:00,VALID,0,VALID,99.9011,VALID,-0.0339617,VALID,19.1424,VALID,204,VALID,0.462377,
1999-09-14, 00:15:00,VALID,0,VALID,99.9049,VALID,-0.0679233,VALID,19.1555,VALID,217,VALID,0.781456,
1999-09-14, 00:16:01,VALID,0,VALID,99.9176,VALID,-0.0339617,VALID,19.1618,VALID,208,VALID,0.631785,
1999-09-14, 00:17:00,VALID,0,VALID,99.9329,VALID,0.0169808,VALID,19.1846,VALID,220,VALID,0.774414,
1999-09-14, 00:18:00,VALID,0,VALID,99.9354,VALID,-0.0339617,VALID,19.1906,VALID,199,VALID,0.163462,
1999-09-14, 00:19:00,VALID,0,VALID,99.9278,VALID,-0.0169808,VALID,19.2038,VALID,196,VALID,0.586538,
1999-09-14, 00:20:00,VALID,0,VALID,99.9138,VALID,-0.0169808,VALID,19.1973,VALID,223,VALID,0.523226,
1999-09-14, 00:21:00,VALID,0,VALID,99.924,VALID,0,VALID,19.2038,VALID,211,VALID,0.943834,
1999-09-14, 00:22:00,VALID,0,VALID,99.9303,VALID,-0.0509425,VALID,19.21,VALID,220,VALID,0.740543,
1999-09-14, 00:23:00,VALID,0,VALID,99.9316,VALID,-0.0169808,VALID,19.2035,VALID,224,VALID,0.527439,
1999-09-14, 00:24:00,VALID,0,VALID,99.924,VALID,0,VALID,19.1998,VALID,221,VALID,0.620144,
1999-09-14, 00:25:00,VALID,0,VALID,99.9201,VALID,-0.0169808,VALID,19.2167,VALID,221,VALID,0.713867,
1999-09-14, 00:26:00,VALID,0,VALID,99.9252,VALID,-0.0339617,VALID,19.2103,VALID,221,VALID,0.893709,
1999-09-14, 00:27:01,VALID,0,VALID,99.9379,VALID,-0.0509425,VALID,19.2135,VALID,225,VALID,0.709704,
1999-09-14, 00:28:00,VALID,0,VALID,99.9354,VALID,-0.101885,VALID,19.2073,VALID,213,VALID,0.746299,
1999-09-14, 00:29:00,VALID,0,VALID,99.9303,VALID,-0.0849042,VALID,19.2045,VALID,215,VALID,0.55,
1999-09-14, 00:30:00,VALID,0,VALID,99.943,VALID,-0.101885,VALID,19.2015,VALID,214,VALID,0.586338,
1999-09-14, 00:31:00,VALID,0,VALID,99.9507,VALID,-0.101885,VALID,19.2115,VALID,218,VALID,0.538862,
1999-09-14, 00:32:00,VALID,0,VALID,99.9303,VALID,-0.101885,VALID,19.1983,VALID,211,VALID,0.372255,
1999-09-14, 00:33:00,VALID,0,VALID,99.9367,VALID,-0.0849042,VALID,19.1851,VALID,220,VALID,0.451014,
1999-09-14, 00:34:00,VALID,0,VALID,99.9507,VALID,-0.101885,VALID,19.1888,VALID,212,VALID,0.413446,
1999-09-14, 00:35:00,VALID,0,VALID,99.9545,VALID,-0.101885,VALID,19.1913,VALID,212,VALID,0.412538,
1999-09-14, 00:36:00,VALID,0,VALID,99.9481,VALID,-0.101885,VALID,19.1849,VALID,194,VALID,0.627534,
1999-09-14, 00:37:00,VALID,0,VALID,99.9367,VALID,-0.0849042,VALID,19.1816,VALID,189,VALID,0.54082,
1999-09-14, 00:38:01,VALID,0,VALID,99.9201,VALID,-0.0509425,VALID,19.1657,VALID,176,VALID,0.199836,
1999-09-14, 00:39:00,VALID,0,VALID,99.9227,VALID,-0.0849042,VALID,19.1463,VALID,177,VALID,0.17352,
1999-09-14, 00:40:00,VALID,0,VALID,99.9138,VALID,-0.0849042,VALID,19.1105,VALID,177,VALID,0.185855,
1999-09-14, 00:41:00,VALID,0,VALID,99.9011,VALID,-0.0679233,VALID,19.0839,VALID,177,VALID,0.00351562,
1999-09-14, 00:42:00,VALID,0,VALID,99.8909,VALID,-0.0679233,VALID,19.0717,VALID,177,VALID,0,
1999-09-14, 00:43:00,VALID,0,VALID,99.924,VALID,0.0169808,VALID,19.0615,VALID,189,VALID,0.0298478,
1999-09-14, 00:44:00,VALID,0,VALID,99.9621,VALID,0,VALID,19.0641,VALID,210,VALID,0.634291,
1999-09-14, 00:45:00,VALID,0,VALID,99.9596,VALID,0.0169808,VALID,19.0569,VALID,205,VALID,0.720228,
1999-09-14, 00:46:00,VALID,0,VALID,99.9967,VALID,0.0509425,VALID,19.1001,VALID,193,VALID,1.00884,
1999-09-14, 00:47:00,VALID,0,VALID,99.999,VALID,0.0339617,VALID,19.1257,VALID,209,VALID,0.677591,
1999-09-14, 00:48:00,VALID,0,VALID,100,VALID,0.0169808,VALID,19.1349,VALID,212,VALID,0.763725,
1999-09-14, 00:49:01,VALID,0,VALID,99.9952,VALID,0.0339617,VALID,19.1481,VALID,219,VALID,0.828516,
1999-09-14, 00:50:00,VALID,0,VALID,99.998,VALID,0,VALID,19.128,VALID,216,VALID,0.883224,
1999-09-14, 00:51:00,VALID,0,VALID,99.9944,VALID,0.0169808,VALID,19.1521,VALID,204,VALID,0.820929,
1999-09-14, 00:52:00,VALID,0,VALID,99.9837,VALID,0.0169808,VALID,19.1292,VALID,201,VALID,0.64741,
1999-09-14, 00:53:00,VALID,0,VALID,99.9583,VALID,0.0339617,VALID,19.1066,VALID,188,VALID,0.893359,
1999-09-14, 00:54:00,VALID,0,VALID,99.971,VALID,0.0339617,VALID,19.0807,VALID,192,VALID,0.955729,
1999-09-14, 00:55:00,VALID,0,VALID,99.9875,VALID,0.0509425,VALID,19.0835,VALID,180,VALID,0.904848,
1999-09-14, 00:56:00,VALID,0,VALID,99.9659,VALID,0,VALID,19.0675,VALID,186,VALID,1.04413,
1999-09-14, 00:57:00,VALID,0,VALID,99.971,VALID,0.0169808,VALID,19.0648,VALID,180,VALID,0.813978,
1999-09-14, 00:58:00,VALID,0,VALID,99.9557,VALID,0.0169808,VALID,19.0255,VALID,174,VALID,0.664885,
1999-09-14, 00:59:01,VALID,0,VALID,99.9443,VALID,0.0339617,VALID,18.9703,VALID,169,VALID,0.706555,
1999-09-14, 01:00:01,VALID,0,VALID,99.9583,VALID,0.0169808,VALID,18.9574,VALID,167,VALID,0.751056,
1999-09-14, 01:01:00,VALID,0,VALID,99.9468,VALID,0,VALID,18.929,VALID,165,VALID,0.669531,
1999-09-14, 01:02:00,VALID,0,VALID,99.9214,VALID,-0.0679233,VALID,18.8812,VALID,155,VALID,0.63199,
1999-09-14, 01:03:00,VALID,0,VALID,99.929,VALID,-0.0679233,VALID,18.8554,VALID,165,VALID,0.55222,
1999-09-14, 01:04:00,VALID,0,VALID,99.9481,VALID,-0.0849042,VALID,18.8168,VALID,170,VALID,0.855469,
1999-09-14, 01:05:00,VALID,0,VALID,99.9481,VALID,-0.0849042,VALID,18.8002,VALID,177,VALID,0.687891,
1999-09-14, 01:06:00,VALID,0,VALID,99.9468,VALID,-0.0679233,VALID,18.7686,VALID,184,VALID,0.696514,
1999-09-14, 01:07:00,VALID,0,VALID,99.9919,VALID,-0.0679233,VALID,18.7517,VALID,193,VALID,0.860978,
1999-09-14, 01:08:00,VALID,0,VALID,99.9967,VALID,-0.101885,VALID,18.7554,VALID,196,VALID,0.711782,
1999-09-14, 01:09:00,VALID,0,VALID,100,VALID,-0.0679233,VALID,18.7554,VALID,191,VALID,0.901816,
1999-09-14, 01:10:01,VALID,0,VALID,100,VALID,-0.0679233,VALID,18.7457,VALID,191,VALID,0.422081,
1999-09-14, 01:11:01,VALID,0,VALID,99.9931,VALID,-0.0849042,VALID,18.736,VALID,167,VALID,0.436547,
1999-09-14, 01:12:00,VALID,0,VALID,99.9947,VALID,-0.0339617,VALID,18.6967,VALID,131,VALID,0.749367,
1999-09-14, 01:13:00,VALID,0,VALID,99.999,VALID,-0.0509425,VALID,18.6938,VALID,141,VALID,0.516406,
1999-09-14, 01:14:00,VALID,0,VALID,100,VALID,-0.0509425,VALID,18.6938,VALID,158,VALID,0.642887,
1999-09-14, 01:15:00,VALID,0,VALID,100,VALID,-0.0849042,VALID,18.6975,VALID,181,VALID,0.632401,
1999-09-14, 01:16:00,VALID,0,VALID,100,VALID,0,VALID,18.7198,VALID,173,VALID,0.764391,
1999-09-14, 01:17:00,VALID,0,VALID,100,VALID,-0.0679233,VALID,18.7201,VALID,187,VALID,0.903125,
1999-09-14, 01:18:00,VALID,0,VALID,100,VALID,-0.0679233,VALID,18.7295,VALID,192,VALID,0.910056,
1999-09-14, 01:19:00,VALID,0,VALID,100,VALID,-0.0339617,VALID,18.7616,VALID,196,VALID,0.819111,
1999-09-14, 01:20:00,VALID,0,VALID,100,VALID,-0.0849042,VALID,18.7813,VALID,191,VALID,1.04307,
1999-09-14, 01:21:00,VALID,0,VALID,100,VALID,-0.0679233,VALID,18.8071,VALID,188,VALID,0.942356,
1999-09-14, 01:22:01,VALID,0,VALID,100,VALID,-0.0679233,VALID,18.8136,VALID,190,VALID,0.846423,
1999-09-14, 01:23:00,VALID,0,VALID,100,VALID,-0.0849042,VALID,18.7974,VALID,189,VALID,0.83327,
1999-09-14, 01:24:00,VALID,0,VALID,100,VALID,-0.0849042,VALID,18.8076,VALID,181,VALID,0.703125,
1999-09-14, 01:25:00,VALID,0,VALID,100,VALID,-0.0849042,VALID,18.8037,VALID,171,VALID,0.574414,
1999-09-14, 01:26:00,VALID,0,VALID,100,VALID,-0.0679233,VALID,18.8272,VALID,195,VALID,0.780633,
1999-09-14, 01:27:00,VALID,0,VALID,100,VALID,-0.0849042,VALID,18.8335,VALID,198,VALID,0.516036,
1999-09-14, 01:28:00,VALID,0,VALID,100,VALID,-0.0679233,VALID,18.8464,VALID,199,VALID,0.47903,
1999-09-14, 01:29:00,VALID,0,VALID,100,VALID,-0.0849042,VALID,18.8556,VALID,208,VALID,0.373633,
1999-09-14, 01:30:00,VALID,0,VALID,100,VALID,-0.0509425,VALID,18.8593,VALID,198,VALID,0.199119,
1999-09-14, 01:31:00,VALID,0,VALID,100,VALID,-0.0849042,VALID,18.8429,VALID,198,VALID,0.0945513,
1999-09-14, 01:32:00,VALID,0,VALID,100,VALID,-0.0509425,VALID,18.8395,VALID,198,VALID,0.173353,
1999-09-14, 01:33:00,VALID,0,VALID,100,VALID,-0.0849042,VALID,18.8494,VALID,197,VALID,0.290752,
1999-09-14, 01:34:00,VALID,0,VALID,100,VALID,-0.0679233,VALID,18.8367,VALID,192,VALID,0.613281,
1999-09-14, 01:35:00,VALID,0,VALID,100,VALID,-0.101885,VALID,18.8466,VALID,198,VALID,0.779154,
1999-09-14, 01:36:00,VALID,0,VALID,100,VALID,-0.0169808,VALID,18.8302,VALID,190,VALID,0.781883,
1999-09-14, 01:37:00,VALID,0,VALID,100,VALID,-0.0339617,VALID,18.8268,VALID,204,VALID,0.978516,
1999-09-14, 01:38:00,VALID,0,VALID,100,VALID,-0.0679233,VALID,18.8427,VALID,194,VALID,1.2465,
1999-09-14, 01:39:00,VALID,0,VALID,100,VALID,-0.0509425,VALID,18.8526,VALID,194,VALID,1.04379,
1999-09-14, 01:40:00,VALID,0,VALID,100,VALID,-0.0339617,VALID,18.8651,VALID,193,VALID,1.14638,
1999-09-14, 01:41:00,VALID,0,VALID,100,VALID,-0.0509425,VALID,18.8549,VALID,192,VALID,0.996289,
1999-09-14, 01:42:01,VALID,0,VALID,100,VALID,-0.0679233,VALID,18.8559,VALID,189,VALID,0.979968,
1999-09-14, 01:43:00,VALID,0,VALID,100,VALID,-0.0169808,VALID,18.8554,VALID,203,VALID,0.428886,
1999-09-14, 01:44:00,VALID,0,VALID,100,VALID,-0.0849042,VALID,18.8491,VALID,195,VALID,0.0891047,
1999-09-14, 01:45:00,VALID,0,VALID,100,VALID,-0.0849042,VALID,18.8491,VALID,213,VALID,0.602196,
1999-09-14, 01:46:00,VALID,0,VALID,100,VALID,-0.0509425,VALID,18.8688,VALID,209,VALID,0.597245,
1999-09-14, 01:47:00,VALID,0,VALID,100,VALID,-0.0509425,VALID,18.8616,VALID,195,VALID,0.697218,
1999-09-14, 01:48:00,VALID,0,VALID,100,VALID,-0.0339617,VALID,18.8651,VALID,210,VALID,0.59924,
1999-09-14, 01:49:00,VALID,0,VALID,100,VALID,-0.0509425,VALID,18.8427,VALID,205,VALID,0.598437,
1999-09-14, 01:50:00,VALID,0,VALID,100,VALID,-0.0339617,VALID,18.8424,VALID,197,VALID,0.858964,
1999-09-14, 01:51:00,VALID,0,VALID,100,VALID,-0.0679233,VALID,18.8494,VALID,199,VALID,1.09498,
1999-09-14, 01:52:00,VALID,0,VALID,100,VALID,-0.0679233,VALID,18.8556,VALID,209,VALID,0.879729,
1999-09-14, 01:53:01,VALID,0,VALID,100,VALID,-0.0339617,VALID,18.8489,VALID,196,VALID,1.3709,
1999-09-14, 01:54:01,VALID,0,VALID,100,VALID,-0.0509425,VALID,18.8491,VALID,195,VALID,1.26823,
1999-09-14, 01:55:00,VALID,0,VALID,100,VALID,-0.0509425,VALID,18.8524,VALID,186,VALID,1.11538,
1999-09-14, 01:56:00,VALID,0,VALID,100,VALID,-0.0169808,VALID,18.8494,VALID,188,VALID,0.969383,
1999-09-14, 01:57:00,VALID,0,VALID,100,VALID,-0.0679233,VALID,18.8295,VALID,175,VALID,0.796875,
1999-09-14, 01:58:00,VALID,0,VALID,100,VALID,-0.0679233,VALID,18.8399,VALID,189,VALID,0.983758,
1999-09-14, 01:59:00,VALID,0,VALID,100,VALID,-0.0849042,VALID,18.8233,VALID,185,VALID,0.732279,
1999-09-14, 02:00:00,VALID,0,VALID,100,VALID,-0.0849042,VALID,18.8104,VALID,188,VALID,1.12057,
1999-09-14, 02:01:00,VALID,0,VALID,100,VALID,-0.0849042,VALID,18.7972,VALID,192,VALID,0.988086,
1999-09-14, 02:02:00,VALID,0,VALID,100,VALID,-0.0679233,VALID,18.8067,VALID,208,VALID,1.09396,
1999-09-14, 02:03:00,VALID,0,VALID,100,VALID,-0.0169808,VALID,18.8131,VALID,198,VALID,1.14926,
1999-09-14, 02:04:00,VALID,0,VALID,100,VALID,0,VALID,18.8099,VALID,199,VALID,0.762952,
1999-09-14, 02:05:01,VALID,0,VALID,100,VALID,-0.0509425,VALID,18.8131,VALID,211,VALID,0.97207,
1999-09-14, 02:06:00,VALID,0,VALID,100,VALID,-0.0339617,VALID,18.8265,VALID,209,VALID,1.45533,
1999-09-14, 02:07:00,VALID,0,VALID,100,VALID,-0.0339617,VALID,18.8323,VALID,218,VALID,1.11839,
1999-09-14, 02:08:00,VALID,0,VALID,100,VALID,-0.0339617,VALID,18.8491,VALID,192,VALID,1.28526,
1999-09-14, 02:09:00,VALID,0,VALID,100,VALID,-0.0679233,VALID,18.8588,VALID,195,VALID,1.11233,
1999-09-14, 02:10:00,VALID,0,VALID,100,VALID,-0.0339617,VALID,18.845,VALID,208,VALID,1.06394,
1999-09-14, 02:11:00,VALID,0,VALID,100,VALID,-0.0509425,VALID,18.8688,VALID,184,VALID,0.751715,
1999-09-14, 02:12:00,VALID,0,VALID,100,VALID,-0.0509425,VALID,18.8621,VALID,183,VALID,0.983319,
1999-09-14, 02:13:00,VALID,0,VALID,100,VALID,-0.0169808,VALID,18.8614,VALID,184,VALID,0.966992,
1999-09-14, 02:14:00,VALID,0,VALID,100,VALID,0.0169808,VALID,18.8415,VALID,185,VALID,1.17804,
1999-09-14, 02:15:00,VALID,0,VALID,100,VALID,0,VALID,18.835,VALID,184,VALID,1.25267,
1999-09-14, 02:16:00,VALID,0,VALID,100,VALID,0,VALID,18.8355,VALID,190,VALID,1.24424,
1999-09-14, 02:17:00,VALID,0,VALID,100,VALID,0.0169808,VALID,18.8223,VALID,200,VALID,0.776172,
1999-09-14, 02:18:00,VALID,0,VALID,100,VALID,0,VALID,18.8288,VALID,192,VALID,1.02584,
1999-09-14, 02:19:00,VALID,0,VALID,100,VALID,0,VALID,18.8189,VALID,181,VALID,0.723558,
1999-09-14, 02:20:00,VALID,0,VALID,100,VALID,0.0169808,VALID,18.8191,VALID,200,VALID,1.12774,
1999-09-14, 02:21:00,VALID,0,VALID,100,VALID,0.0169808,VALID,18.8253,VALID,207,VALID,1.11677,
1999-09-14, 02:22:00,VALID,0,VALID,100,VALID,0.0169808,VALID,18.8258,VALID,223,VALID,1.08964,
1999-09-14, 02:23:00,VALID,0,VALID,100,VALID,0.0339617,VALID,18.8353,VALID,216,VALID,1.16139,
1999-09-14, 02:24:00,VALID,0,VALID,100,VALID,0.0169808,VALID,18.8547,VALID,219,VALID,0.765836,
1999-09-14, 02:25:00,VALID,0,VALID,100,VALID,0.0339617,VALID,18.8614,VALID,214,VALID,0.828906,
1999-09-14, 02:26:00,VALID,0,VALID,100,VALID,0,VALID,18.8713,VALID,224,VALID,0.724507,
1999-09-14, 02:27:00,VALID,0,VALID,100,VALID,0,VALID,18.8711,VALID,224,VALID,0.736431,
1999-09-14, 02:28:00,VALID,0,VALID,100,VALID,0,VALID,18.8711,VALID,224,VALID,0.708882,
1999-09-14, 02:29:00,VALID,0,VALID,100,VALID,0,VALID,18.8741,VALID,226,VALID,0.590234,
1999-09-14, 02:30:00,VALID,0,VALID,100,VALID,0,VALID,18.8773,VALID,232,VALID,0.33754,
1999-09-14, 02:31:00,VALID,0,VALID,100,VALID,-0.0169808,VALID,18.8775,VALID,245,VALID,0.365785,
1999-09-14, 02:32:00,VALID,0,VALID,100,VALID,-0.0169808,VALID,18.8738,VALID,252,VALID,0.252111,
1999-09-14, 02:33:00,VALID,0,VALID,100,VALID,-0.0169808,VALID,18.8741,VALID,256,VALID,0,
1999-09-14, 02:34:00,VALID,0,VALID,100,VALID,0,VALID,18.8937,VALID,271,VALID,0,
1999-09-14, 02:35:00,VALID,0,VALID,100,VALID,0.0169808,VALID,18.9096,VALID,273,VALID,0,
1999-09-14, 02:36:00,VALID,0,VALID,100,VALID,0,VALID,18.9099,VALID,273,VALID,0,
1999-09-14, 02:37:00,VALID,0,VALID,100,VALID,0,VALID,18.9032,VALID,273,VALID,0,
1999-09-14, 02:38:00,VALID,0,VALID,100,VALID,0,VALID,18.8932,VALID,273,VALID,0,
1999-09-14, 02:39:00,VALID,0,VALID,100,VALID,0.0169808,VALID,18.9094,VALID,262,VALID,0,
1999-09-14, 02:40:00,VALID,0,VALID,100,VALID,0,VALID,18.926,VALID,259,VALID,0,
1999-09-14, 02:41:00,VALID,0,VALID,100,VALID,0.0169808,VALID,18.9161,VALID,259,VALID,0,
1999-09-14, 02:42:00,VALID,0,VALID,100,VALID,0,VALID,18.926,VALID,259,VALID,0,
1999-09-14, 02:43:00,VALID,0,VALID,100,VALID,0.0169808,VALID,18.9322,VALID,254,VALID,0,
1999-09-14, 02:44:00,VALID,0,VALID,100,VALID,0.0509425,VALID,18.9355,VALID,160,VALID,0,
1999-09-14, 02:45:00,VALID,0,VALID,100,VALID,0.0169808,VALID,18.9452,VALID,126,VALID,0,
1999-09-14, 02:46:00,VALID,0,VALID,100,VALID,0,VALID,18.9322,VALID,131,VALID,0,
1999-09-14, 02:47:00,VALID,0,VALID,100,VALID,0,VALID,18.9128,VALID,129,VALID,0,
1999-09-14, 02:48:00,VALID,0,VALID,100,VALID,0,VALID,18.9099,VALID,126,VALID,0,
1999-09-14, 02:49:00,VALID,0,VALID,100,VALID,0,VALID,18.9002,VALID,125,VALID,0,
1999-09-14, 02:50:00,VALID,0,VALID,100,VALID,0.0169808,VALID,18.9034,VALID,115,VALID,0,
1999-09-14, 02:51:00,VALID,0,VALID,100,VALID,0.0169808,VALID,18.8872,VALID,117,VALID,0,
1999-09-14, 02:52:00,VALID,0,VALID,100,VALID,0.0169808,VALID,18.8773,VALID,125,VALID,0,
1999-09-14, 02:53:00,VALID,0,VALID,99.9957,VALID,0,VALID,18.8454,VALID,145,VALID,0,
1999-09-14, 02:54:00,VALID,0,VALID,99.9911,VALID,0.0169808,VALID,18.8159,VALID,159,VALID,0,
1999-09-14, 02:55:00,VALID,0,VALID,99.9822,VALID,0,VALID,18.7898,VALID,172,VALID,0,
1999-09-14, 02:56:00,VALID,0,VALID,99.9911,VALID,0.0169808,VALID,18.7838,VALID,186,VALID,0.0120355,
1999-09-14, 02:57:00,VALID,0,VALID,99.9934,VALID,0.0169808,VALID,18.7612,VALID,191,VALID,0.730152,
1999-09-14, 02:58:00,VALID,0,VALID,99.998,VALID,0.0169808,VALID,18.7485,VALID,194,VALID,0.770765,
1999-09-14, 02:59:01,VALID,0,VALID,99.9934,VALID,0.0339617,VALID,18.7383,VALID,184,VALID,0.870808,
1999-09-14, 03:00:01,VALID,0,VALID,99.999,VALID,0.0169808,VALID,18.7415,VALID,168,VALID,0.633657,
1999-09-14, 03:01:00,VALID,0,VALID,99.998,VALID,0.0169808,VALID,18.7418,VALID,176,VALID,0.49707,
1999-09-14, 03:02:00,VALID,0,VALID,99.9967,VALID,0,VALID,18.742,VALID,172,VALID,0.403166,
1999-09-14, 03:03:00,VALID,0,VALID,99.999,VALID,0,VALID,18.7385,VALID,171,VALID,0.507196,
1999-09-14, 03:04:00,VALID,0,VALID,100,VALID,0,VALID,18.7318,VALID,175,VALID,0.652549,
1999-09-14, 03:05:00,VALID,0,VALID,100,VALID,0,VALID,18.7418,VALID,173,VALID,0.475,
1999-09-14, 03:06:00,VALID,0,VALID,100,VALID,0,VALID,18.7485,VALID,172,VALID,0.159455,
1999-09-14, 03:07:00,VALID,0,VALID,100,VALID,0,VALID,18.7452,VALID,162,VALID,0.346554,
1999-09-14, 03:08:00,VALID,0,VALID,100,VALID,0,VALID,18.7549,VALID,165,VALID,0.377956,
1999-09-14, 03:09:00,VALID,0,VALID,100,VALID,0,VALID,18.7582,VALID,157,VALID,0.123522,
1999-09-14, 03:10:01,VALID,0,VALID,100,VALID,0,VALID,18.7522,VALID,184,VALID,0.319079,
1999-09-14, 03:11:01,VALID,0,VALID,100,VALID,0,VALID,18.7388,VALID,187,VALID,0.13186,
1999-09-14, 03:12:00,VALID,0,VALID,100,VALID,-0.0169808,VALID,18.7288,VALID,187,VALID,0.0988176,
1999-09-14, 03:13:00,VALID,0,VALID,100,VALID,0,VALID,18.7286,VALID,187,VALID,0.0701172,
1999-09-14, 03:14:00,VALID,0,VALID,99.999,VALID,0,VALID,18.7351,VALID,187,VALID,0,
1999-09-14, 03:15:00,VALID,0,VALID,100,VALID,0.0169808,VALID,18.7254,VALID,210,VALID,0.212993,
1999-09-14, 03:16:00,VALID,0,VALID,100,VALID,0,VALID,18.7288,VALID,211,VALID,0,
1999-09-14, 03:17:00,VALID,0,VALID,99.999,VALID,0,VALID,18.7321,VALID,211,VALID,0.167187,
1999-09-14, 03:18:00,VALID,0,VALID,99.9967,VALID,0,VALID,18.7157,VALID,217,VALID,0.571915,
1999-09-14, 03:19:00,VALID,0,VALID,99.987,VALID,0,VALID,18.7097,VALID,210,VALID,0.582933,
1999-09-14, 03:20:00,VALID,0,VALID,99.9944,VALID,0.0339617,VALID,18.693,VALID,206,VALID,0.681166,
1999-09-14, 03:21:00,VALID,0,VALID,100,VALID,0,VALID,18.7064,VALID,201,VALID,0.919975,
1999-09-14, 03:22:01,VALID,0,VALID,100,VALID,0,VALID,18.7062,VALID,211,VALID,0.535979,
1999-09-14, 03:23:00,VALID,0,VALID,100,VALID,0,VALID,18.6965,VALID,222,VALID,0.664634,
1999-09-14, 03:24:00,VALID,0,VALID,100,VALID,0,VALID,18.6833,VALID,218,VALID,1.00084,
1999-09-14, 03:25:00,VALID,0,VALID,100,VALID,-0.0169808,VALID,18.7,VALID,217,VALID,1.23535,
1999-09-14, 03:26:00,VALID,0,VALID,100,VALID,0.0169808,VALID,18.6938,VALID,216,VALID,1.01665,
1999-09-14, 03:27:00,VALID,0,VALID,100,VALID,0,VALID,18.6804,VALID,216,VALID,0.906661,
1999-09-14, 03:28:00,VALID,0,VALID,100,VALID,0,VALID,18.6868,VALID,219,VALID,0.603002,
1999-09-14, 03:29:00,VALID,0,VALID,100,VALID,0,VALID,18.6838,VALID,218,VALID,0.79668,
1999-09-14, 03:30:00,VALID,0,VALID,100,VALID,0,VALID,18.6873,VALID,212,VALID,1.05048,
1999-09-14, 03:31:00,VALID,0,VALID,100,VALID,-0.0169808,VALID,18.6903,VALID,205,VALID,0.501202,
1999-09-14, 03:32:00,VALID,0,VALID,100,VALID,-0.0169808,VALID,18.6841,VALID,199,VALID,0.462627,
1999-09-14, 03:33:01,VALID,0,VALID,100,VALID,0,VALID,18.6776,VALID,200,VALID,0.0546875,
1999-09-14, 03:34:00,VALID,0,VALID,100,VALID,0.0169808,VALID,18.6677,VALID,201,VALID,0,
1999-09-14, 03:35:00,VALID,0,VALID,100,VALID,0,VALID,18.6547,VALID,208,VALID,0,
1999-09-14, 03:36:00,VALID,0,VALID,100,VALID,0.0169808,VALID,18.6644,VALID,207,VALID,0,
1999-09-14, 03:37:00,VALID,0,VALID,100,VALID,0.0169808,VALID,18.6545,VALID,207,VALID,0,
1999-09-14, 03:38:00,VALID,0,VALID,100,VALID,-0.0169808,VALID,18.6349,VALID,207,VALID,0.498561,
1999-09-14, 03:39:00,VALID,0,VALID,100,VALID,0,VALID,18.6453,VALID,213,VALID,0.755962,
1999-09-14, 03:40:00,VALID,0,VALID,100,VALID,-0.0169808,VALID,18.6351,VALID,223,VALID,0.931538,
1999-09-14, 03:41:00,VALID,0,VALID,100,VALID,0,VALID,18.6256,VALID,231,VALID,0.828906,
1999-09-14, 03:42:00,VALID,0,VALID,100,VALID,-0.0169808,VALID,18.6192,VALID,233,VALID,0.485777,
1999-09-14, 03:43:00,VALID,0,VALID,100,VALID,0,VALID,18.6062,VALID,236,VALID,0.516627,
1999-09-14, 03:44:01,VALID,0,VALID,100,VALID,0,VALID,18.5931,VALID,233,VALID,0.863176,
1999-09-14, 03:45:00,VALID,0,VALID,100,VALID,0.0169808,VALID,18.5772,VALID,230,VALID,0.63788,
1999-09-14, 03:46:00,VALID,0,VALID,100,VALID,0,VALID,18.5608,VALID,221,VALID,0.660362,
1999-09-14, 03:47:00,VALID,0,VALID,100,VALID,0,VALID,18.5446,VALID,224,VALID,0.612043,
1999-09-14, 03:48:00,VALID,0,VALID,100,VALID,0,VALID,18.5349,VALID,228,VALID,0.524071,
1999-09-14, 03:49:00,VALID,0,VALID,100,VALID,0,VALID,18.5287,VALID,213,VALID,0.701758,
1999-09-14, 03:50:00,VALID,0,VALID,100,VALID,0,VALID,18.5155,VALID,224,VALID,0.491571,
1999-09-14, 03:51:00,VALID,0,VALID,100,VALID,0,VALID,18.5093,VALID,197,VALID,0.532278,
1999-09-14, 03:52:00,VALID,0,VALID,100,VALID,0,VALID,18.4931,VALID,165,VALID,0.58491,
1999-09-14, 03:53:00,VALID,0,VALID,100,VALID,0.0169808,VALID,18.4703,VALID,148,VALID,0.873047,
1999-09-14, 03:54:01,VALID,0,VALID,100,VALID,0,VALID,18.4541,VALID,138,VALID,1.32772,
1999-09-14, 03:55:01,VALID,0,VALID,100,VALID,0,VALID,18.4511,VALID,137,VALID,1.08193,
1999-09-14, 03:56:00,VALID,0,VALID,100,VALID,0.0169808,VALID,18.4352,VALID,138,VALID,1.23585,
1999-09-14, 03:57:00,VALID,0,VALID,100,VALID,0.0169808,VALID,18.4088,VALID,135,VALID,1.20988,
1999-09-14, 03:58:00,VALID,0,VALID,100,VALID,0,VALID,18.3992,VALID,150,VALID,0.965461,
1999-09-14, 03:59:00,VALID,0,VALID,100,VALID,0.0169808,VALID,18.3992,VALID,166,VALID,1.07069,
1999-09-14, 04:00:00,VALID,0,VALID,100,VALID,-0.0169808,VALID,18.3929,VALID,183,VALID,0.668919,
1999-09-14, 04:01:00,VALID,0,VALID,100,VALID,0.0169808,VALID,18.383,VALID,204,VALID,0.731445,
1999-09-14, 04:02:00,VALID,0,VALID,100,VALID,0,VALID,18.3733,VALID,209,VALID,0.782484,
1999-09-14, 04:03:00,VALID,0,VALID,100,VALID,-0.0169808,VALID,18.3571,VALID,209,VALID,0.816817,
1999-09-14, 04:04:00,VALID,0,VALID,100,VALID,-0.0169808,VALID,18.3541,VALID,199,VALID,0.74116,
1999-09-14, 04:05:01,VALID,0,VALID,100,VALID,-0.0169808,VALID,18.341,VALID,177,VALID,0.694336,
1999-09-14, 04:06:01,VALID,0,VALID,100,VALID,0,VALID,18.3414,VALID,165,VALID,1.00781,
1999-09-14, 04:07:00,VALID,0,VALID,100,VALID,0.0169808,VALID,18.3377,VALID,176,VALID,1.11859,
1999-09-14, 04:08:00,VALID,0,VALID,100,VALID,0,VALID,18.3444,VALID,181,VALID,0.934966,
1999-09-14, 04:09:00,VALID,0,VALID,100,VALID,-0.0169808,VALID,18.3449,VALID,182,VALID,0.865287,
1999-09-14, 04:10:00,VALID,0,VALID,100,VALID,0.0169808,VALID,18.3317,VALID,186,VALID,0.932771,
1999-09-14, 04:11:00,VALID,0,VALID,100,VALID,0,VALID,18.3285,VALID,190,VALID,1.17054,
1999-09-14, 04:12:00,VALID,0,VALID,100,VALID,-0.0169808,VALID,18.3315,VALID,193,VALID,1.24155,
1999-09-14, 04:13:00,VALID,0,VALID,100,VALID,0,VALID,18.3287,VALID,198,VALID,0.983789,